Location: Bambrugge
(50.9212°N, 3.9299°E)
Time: 21:02:24
(UTC+00:00)

SL-16 R/B - Pass Details

Date: 14 August 2024
Orbit: 842 x 845 km, 71.0° (Epoch: 10 September)

Event Time Altitude Azimuth Distance (km) Brightness Sun altitude
Exits shadow 23:44:58 47° 242° (WSW) 1,107 2.6 -25.1°
Maximum altitude 23:46:29 67° 303° (WNW) 918 2.4 -25.1°
Drops below altitude 10° 23:52:09 10° 26° (NNE) 2,477 5.5 -25.1°
Sets 23:54:38 0° 30° (NNE) 3,416 6.3 -25.1°
